Tracking 28790 objects as of 19-Apr-2024
HD Live streaming from Space Station
objects crossing your sky now

PERSEUS M2

Track PERSEUS M2 now!
10-day predictions
PERSEUS M2 is classified as:


NORAD ID: 40037
Int'l Code: 2014-033AD
Perigee: 594.9 km
Apogee: 615.0 km
Inclination: 97.9 °
Period: 96.6 minutes
Semi major axis: 6975 km
RCS: Unknown
Launch date: June 19, 2014
Source: Commonwealth of Independent States (former USSR) (CIS)
Launch site: Orenburg, Russia (OREN)

Uplink (MHz):
Downlink (MHz): 400.190/400.221*
Beacon (MHz):
Mode: 9600bps GFSK
Call sign: CQ
Status:

Your satellite tracking list
Your tracking list is empty




NASA's NSSDC Master Catalog

Two Line Element Set (TLE):
1 40037U 14033AD  24109.26976815  .00005180  00000-0  54138-3 0  9993
2 40037  97.9243  39.8745 0014344  38.4654 321.7583 14.90039673532902
Source of the keplerian elements: AFSPC